Content
SEND FEEDBACK

Daily
Averages
Monthly
Summary
United States of America

OAKLAND - LAKE MERRITT, CALIFORNIA


Home > North America > United States > California
Elevation: 40 feet     Latitude: 37 48N     Longitude: 122 16W

WEATHER
 
SELECT A DAY
Number of Records: 185,983;   Date Range: 1/1/95 - 9/29/14
 
SHARE

PRINT THIS DATA

[ ← Previous Day ]
WEATHER ALMANAC - JANUARY 31, 2013
[ Next Day → ]
[ °C ]   °F
Weather ElementAverageHighLow
Temperature51.8 °F63 °F (4:53 pm)41 °F (5:53 am)
Dewpoint46.4 °F51.1 °F (9:53 am)41 °F (5:53 am)
Humidity84.1 %100 % (3:53 am)50 % (2:53 pm)
Barometer30.25 in30.31 in (9:53 am)30.19 in (5:53 pm)
Wind Speed2.5 mph8.1 mph (4:53 pm)
Weather ElementAverage
Visibility9.3 mi
Wind DirectionESE (122.2 °)

Weather ElementTotal
Precipitation---
Heating Degree Days13 (Base 65)
Growing Degree Days2 (Base 50)
Averaged from 23 records on January 31, 2013
WEATHER CONDITIONS BREAKOUT
WIND DIRECTION BREAKOUT
WEATHER BY HOUR - JANUARY 31, 2013
[ °C ]   °F
Local TimeTemperatureDewpointHumidityBarometerVisibilityWind DirectionWind SpeedGust SpeedPrecipitationEventsConditions
1:53 AM44.1 °F43.0 °F96 %30.30 in10.0 miENE (60°)3.5 mphClear
2:53 AM45.0 °F44.1 °F97 %30.28 in10.0 miCalmClear
3:53 AM43.0 °F43.0 °F100 %30.28 in10.0 miCalmClear
4:53 AM44.1 °F43.0 °F96 %30.28 in10.0 miCalmClear
5:53 AM41.0 °F41.0 °F100 %30.28 in10.0 miCalmClear
6:53 AM41.0 °F41.0 °F100 %30.29 in8.0 miCalmClear
7:53 AM44.1 °F44.1 °F100 %30.30 in10.0 miCalmClear
8:53 AM52.0 °F48.0 °F86 %30.30 in10.0 miCalmClear
9:53 AM53.1 °F51.1 °F93 %30.31 in10.0 miSW (220°)3.5 mphClear
10:53 AM54.0 °F50.0 °F86 %30.30 in10.0 miSSW (200°)6.9 mphClear
11:53 AM55.0 °F51.1 °F86 %30.28 in8.0 miSW (220°)3.5 mphClear
12:53 PM57.9 °F50.0 °F75 %30.25 in6.0 miCalmHaze
1:53 PM60.1 °F46.0 °F60 %30.22 in6.0 miWest (270°)5.8 mphHaze
2:53 PM62.1 °F43.0 °F50 %30.22 in6.0 miWest (270°)6.9 mphHaze
3:53 PM62.1 °F44.1 °F52 %30.21 in10.0 miWNW (290°)4.6 mphPartly Cloudy
4:53 PM63.0 °F45.0 °F52 %30.20 in10.0 miNW (310°)8.1 mphPartly Cloudy
5:53 PM59.0 °F45.0 °F60 %30.19 in10.0 miNW (320°)3.5 mphPartly Cloudy
6:53 PM55.9 °F48.9 °F77 %30.20 in10.0 miCalmClear
7:53 PM55.9 °F51.1 °F84 %30.20 in10.0 miWNW (300°)4.6 mphClear
8:53 PM50.0 °F48.9 °F96 %30.20 in10.0 miNW (320°)3.5 mphClear
9:53 PM48.0 °F48.0 °F100 %30.20 in10.0 miNNE (30°)3.5 mphClear
10:53 PM50.0 °F48.9 °F96 %30.20 in10.0 miCalmClear
11:53 PM50.0 °F48.0 °F93 %30.20 in10.0 miCalmClear
Hourly data recorded from KOAK, located miles away from Oakland - Lake Merritt, California







STORIES FROM OUR PARTNERS